Denver, CO

8:32 PM MDT on May 27, 2018 (GMT -0600)
Front Range

Weather History for KFTG - April, 2013

Change the Weather History Date:

Wednesday, April 24, 2013

  Actual Average (WUND) Record (WUND)
Temperature  
Mean Temperature 40 °F -  
Max Temperature 51 °F - - (-1)
Min Temperature 28 °F - - (-1)
Degree Days  
Heating Degree Days 26    
Moisture  
Dew Point 24 °F    
Average Humidity 64    
Maximum Humidity 81    
Minimum Humidity 26    
Precipitation  
Precipitation 0.00 in - - ()
Sea Level Pressure  
Sea Level Pressure 30.15 in    
Wind  
Wind Speed 11 mph (SSW)    
Max Wind Speed 17 mph    
Max Gust Speed -    
Visibility 10 miles    
Events      
Averages and records for this station are not official NWS values.
T = Trace of Precipitation, MM = Missing Value Source: NWS Daily Summary

Daily Weather History Graph

Daily Weather History Graph

Search for Another Location

Airport or City:

Astronomy

Apr. 24, 2013 Rise Set
Actual Time 6:07 AM MDT 7:45 PM MDT
Civil Twilight 5:38 AM MDT 8:14 PM MDT
Nautical Twilight 5:04 AM MDT 8:49 PM MDT
Astronomical Twilight 4:27 AM MDT 9:26 PM MDT
Moon 6:52 PM MDT (4/24) 5:12 AM MDT (4/24)
Length of Visible Light 14h 35m
Length of Day
13h 38m
Waxing Gibbous, 98% of the Moon is Illuminated
Apr 24
Waxing Gibbous
Apr 25
Full
May 2
Last Quarter
May 9
New
May 17
First Quarter

Hourly Weather History & Observations

Time (MDT) Temp. Windchill Dew Point Humidity Pressure Visibility Wind Dir Wind Speed Gust Speed Precip Events Conditions
12:00 AM 30.2 °F 20.2 °F 21.2 °F 69% 30.15 in 10.0 mi SSW 12.7 mph - N/A   Clear
12:20 AM 30.2 °F 20.2 °F 21.2 °F 69% 30.14 in 10.0 mi SSW 12.7 mph - N/A   Clear
12:40 AM 28.4 °F 19.1 °F 21.2 °F 74% 30.14 in 10.0 mi SSW 10.4 mph - N/A   Clear
1:00 AM 30.2 °F 19.3 °F 21.2 °F 69% 30.14 in 10.0 mi SSW 15.0 mph - N/A   Clear
1:19 AM 30.2 °F 18.5 °F 21.2 °F 69% 30.13 in 10.0 mi SSW 17.3 mph - N/A   Clear
1:39 AM 30.2 °F 18.9 °F 21.2 °F 69% 30.13 in 10.0 mi SSW 16.1 mph - N/A   Clear
2:00 AM 30.2 °F 18.5 °F 21.2 °F 69% 30.13 in 10.0 mi SSW 17.3 mph - N/A   Clear
2:20 AM 30.2 °F 20.8 °F 21.2 °F 69% 30.12 in 10.0 mi SSW 11.5 mph - N/A   Clear
2:40 AM 30.2 °F 19.8 °F 21.2 °F 69% 30.12 in 10.0 mi SSW 13.8 mph - N/A   Clear
3:00 AM 30.2 °F 20.8 °F 21.2 °F 69% 30.11 in 10.0 mi SSW 11.5 mph - N/A   Clear
3:20 AM 30.2 °F 21.3 °F 21.2 °F 69% 30.10 in 10.0 mi SW 10.4 mph - N/A   Clear
3:40 AM 30.2 °F 21.3 °F 21.2 °F 69% 30.10 in 10.0 mi SSW 10.4 mph - N/A   Clear
4:00 AM 30.2 °F 20.8 °F 21.2 °F 69% 30.11 in 10.0 mi SSW 11.5 mph - N/A   Clear
4:20 AM 28.4 °F 18.0 °F 21.2 °F 74% 30.11 in 10.0 mi SSW 12.7 mph - N/A   Clear
4:40 AM 30.2 °F 20.8 °F 21.2 °F 69% 30.11 in 10.0 mi SSW 11.5 mph - N/A   Clear
5:20 AM 30.2 °F 21.9 °F 19.4 °F 64% 30.11 in 10.0 mi South 9.2 mph - N/A   Clear
5:40 AM 28.4 °F 19.1 °F 19.4 °F 69% 30.11 in 10.0 mi SSW 10.4 mph - N/A   Clear
5:59 AM 30.2 °F 21.3 °F 21.2 °F 69% 30.12 in 10.0 mi SW 10.4 mph - N/A   Clear
6:20 AM 30.2 °F 21.3 °F 21.2 °F 69% 30.12 in 10.0 mi SW 10.4 mph - N/A   Scattered Clouds
6:40 AM 30.2 °F 21.3 °F 21.2 °F 69% 30.12 in 10.0 mi SW 10.4 mph - N/A   Overcast
6:57 AM 32.0 °F 24.2 °F 21.2 °F 64% 30.12 in 10.0 mi SW 9.2 mph - N/A   Overcast
7:52 AM 32.0 °F 23.6 °F 21.2 °F 64% 30.14 in 50.0 mi SSW 10.4 mph - N/A   Mostly Cloudy
8:50 AM 35.6 °F 28.6 °F 21.2 °F 56% 30.15 in 50.0 mi SSW 9.2 mph - N/A   Mostly Cloudy
9:47 AM 37.4 °F 30.8 °F 21.2 °F 52% 30.16 in 50.0 mi SSW 9.2 mph - N/A   Mostly Cloudy
10:56 AM 42.8 °F 41.1 °F 19.4 °F 39% 30.16 in 50.0 mi SSW 3.5 mph - N/A   Mostly Cloudy
12:47 PM 48.2 °F - 24.8 °F 40% 30.16 in 50.0 mi NNW 4.6 mph - N/A   Scattered Clouds
12:57 PM 48.2 °F - 24.8 °F 40% 30.16 in 50.0 mi West 12.7 mph - N/A   Scattered Clouds
1:51 PM 50.0 °F - 17.6 °F 28% 30.16 in 50.0 mi Calm Calm - N/A   Scattered Clouds
2:48 PM 50.0 °F - 19.4 °F 30% 30.17 in 50.0 mi Variable 5.8 mph - N/A   Scattered Clouds
3:47 PM 51.8 °F - 17.6 °F 26% 30.16 in 50.0 mi WNW 6.9 mph - N/A   Scattered Clouds
6:50 PM 50.0 °F - 26.6 °F 40% 30.16 in 50.0 mi NE 4.6 mph - N/A   Partly Cloudy
7:55 PM 44.6 °F 39.7 °F 30.2 °F 57% 30.18 in 50.0 mi ENE 9.2 mph - N/A   Clear
8:47 PM 39.2 °F 32.5 °F 30.2 °F 70% 30.20 in 50.0 mi SE 10.4 mph - N/A   Clear
9:00 PM 39.2 °F 32.0 °F 32.0 °F 75% 30.20 in 10.0 mi SE 11.5 mph - N/A   Clear
9:20 PM 37.4 °F 29.3 °F 32.0 °F 81% 30.21 in 10.0 mi SSE 12.7 mph - N/A   Clear
9:40 PM 37.4 °F 30.3 °F 32.0 °F 81% 30.22 in 10.0 mi SSE 10.4 mph - N/A   Clear
10:00 PM 39.2 °F 32.5 °F 32.0 °F 75% 30.22 in 10.0 mi SSE 10.4 mph - N/A   Clear
10:20 PM 37.4 °F 32.1 °F 32.0 °F 81% 30.22 in 10.0 mi South 6.9 mph - N/A   Clear
10:40 PM 37.4 °F 30.3 °F 30.2 °F 75% 30.21 in 10.0 mi SSE 10.4 mph - N/A   Clear
10:59 PM 35.6 °F 29.2 °F 30.2 °F 81% 30.20 in 10.0 mi SSE 8.1 mph - N/A   Clear
11:20 PM 35.6 °F 29.2 °F 30.2 °F 81% 30.19 in 10.0 mi South 8.1 mph - N/A   Clear
11:39 PM 35.6 °F 28.6 °F 30.2 °F 81% 30.18 in 10.0 mi South 9.2 mph - N/A   Clear